Tracking 18816 objects as of 17-October-2017
HD Live streaming from Space Station
objects crossing your sky now

STSS ATRR (USA 205)

Track STSS ATRR (USA 205) now!
10-day predictions
STSS ATRR (USA 205) is classified as:


NORAD ID: 34903
Int'l Code: 2009-023A
Perigee: 873.5 km
Apogee: 882.2 km
Inclination: 98.9 °
Period: 102.4 minutes
Semi major axis: 7248 km
RCS: Unknown
Launch date: May 5, 2009
Source: United States (US)
Launch site: AIR FORCE WESTERN TEST RANGE (AFWTR)
aabbcc
Your satellite tracking list
Your tracking list is empty





NASA's NSSDC Master Catalog

Two Line Element Set (TLE):
1 34903U 09023A   15152.91426917 0.00000000  00000-0  00000-0 0    09
2 34903  98.9190 250.2740 0006000 176.8437 183.1562 14.06696387    05
Source of the keplerian elements: McCants